GW0118 Weather Reports


time (UTC)temp
C
wind
direction
speed
KPH
gust
KPH
rain 1hr
cm
rain 24hr
cm
rain mn
cm
humidity
%
barometer
mb
20260901074612 18 0 0.0 1.6 0.00 0.00 0.00 65 1022.9
20260901073115 17 64 1.6 4.8 0.00 0.00 0.00 68 1023.0
20260901071610 17 35 0.0 1.6 0.00 0.00 0.00 66 1023.2
20260901070107 16 0 0.0 1.6 0.00 0.00 0.00 68 1023.1
20260901064608 15 0 0.0 3.2 0.00 0.00 0.00 72 1023.0
20260901063106 15 0 0.0 0.0 0.00 0.00 0.00 70 1023.0
20260901061607 14 0 0.0 0.0 0.00 0.00 0.00 72 1022.9
20260901060111 13 0 0.0 0.0 0.00 0.00 0.00 74 1022.8
20260901054607 13 0 0.0 0.0 0.00 0.00 0.00 73 1022.5
20260901053124 13 0 0.0 0.0 0.00 0.00 0.00 73 1022.4
20260901051605 13 0 0.0 0.0 0.00 0.00 0.00 72 1022.4
20260901044605 15 0 0.0 0.0 0.00 0.00 0.00 71 1022.1
20260901043130 15 0 0.0 0.0 0.00 0.00 0.00 70 1022.1
20260901041611 15 0 0.0 0.0 0.00 0.00 0.00 69 1022.0
20260901040105 15 0 0.0 0.0 0.00 0.00 0.00 69 1022.0
20260901034608 16 0 0.0 1.6 0.00 0.00 0.00 68 1022.0
20260901033108 16 124 1.6 4.8 0.00 0.00 0.00 67 1022.1
20260901031605 16 0 0.0 4.8 0.00 0.00 0.00 67 1022.3
20260901030104 16 123 1.6 3.2 0.00 0.00 0.00 66 1022.2
20260901024608 16 122 0.0 3.2 0.00 0.00 0.00 65 1022.3
20260901023103 16 108 0.0 1.6 0.00 0.00 0.00 64 1022.4
20260901021609 17 0 0.0 3.2 0.00 0.00 0.00 64 1022.4
20260901020113 17 108 1.6 4.8 0.00 0.00 0.00 63 1022.3
20260901014606 17 0 0.0 1.6 0.00 0.00 0.00 62 1022.4
20260901013103 18 49 1.6 4.8 0.00 0.00 0.00 61 1022.4
20260901011621 18 89 1.6 11.3 0.00 0.00 0.00 60 1022.3
20260901010103 18 103 6.4 11.3 0.00 0.00 0.00 60 1022.4
20260901004605 18 84 1.6 9.7 0.00 0.00 0.00 60 1022.6
20260901003107 18 121 3.2 11.3 0.00 0.00 0.00 59 1022.6
20260901001607 18 59 6.4 16.1 0.00 0.00 0.00 59 1022.7
20260901000114 18 109 9.7 16.1 0.00 0.00 0.00 58 1022.8
20260831234618 18 85 8.0 17.7 0.00 0.00 0.00 58 1022.8
20260831233108 18 52 8.0 14.5 0.00 0.00 0.00 57 1022.8
20260831231610 19 89 9.7 16.1 0.00 0.00 0.00 57 1022.7
20260831230109 19 62 9.7 19.3 0.00 0.00 0.00 56 1022.6
20260831224603 19 41 8.0 16.1 0.00 0.00 0.00 56 1022.6
20260831223111 19 91 9.7 16.1 0.00 0.00 0.00 55 1022.7
20260831221612 20 79 11.3 17.7 0.00 0.00 0.00 55 1022.7
20260831220133 20 85 8.0 14.5 0.00 0.00 0.00 54 1022.6
20260831214606 20 50 9.7 17.7 0.00 0.00 0.00 53 1022.6
20260831213110 20 74 6.4 12.9 0.00 0.00 0.00 53 1022.7
20260831211608 20 68 6.4 12.9 0.00 0.00 0.00 52 1022.5
20260831210106 21 115 6.4 11.3 0.00 0.00 0.00 52 1022.6
20260831204605 21 0 1.6 11.3 0.00 0.00 0.00 51 1022.5
20260831203134 21 82 4.8 12.9 0.00 0.00 0.00 50 1022.3
20260831201606 21 127 8.0 17.7 0.00 0.00 0.00 49 1022.2
20260831200107 22 60 11.3 20.9 0.00 0.00 0.00 48 1022.0
20260831194610 22 74 12.9 25.7 0.00 0.00 0.00 45 1021.8
20260831193106 24 115 3.2 9.7 0.00 0.00 0.00 34 1021.6
20260831191606 25 0 0.0 1.6 0.00 0.00 0.00 31 1021.4
20260831190139 26 243 0.0 3.2 0.00 0.00 0.00 30 1021.3
20260831184610 26 241 1.6 8.0 0.00 0.00 0.00 29 1021.3
20260831183102 27 243 4.8 11.3 0.00 0.00 0.00 28 1021.2
20260831181606 28 267 4.8 14.5 0.00 0.00 0.00 27 1021.1
20260831180107 28 261 11.3 20.9 0.00 0.00 0.00 27 1021.0
20260831174602 28 278 12.9 22.5 0.00 0.00 0.00 27 1020.9
20260831173108 29 253 8.0 17.7 0.00 0.00 0.00 27 1021.0
20260831171607 29 227 11.3 22.5 0.00 0.00 0.00 26 1021.0
20260831170110 30 266 11.3 20.9 0.00 0.00 0.00 25 1020.9
20260831164605 30 271 6.4 27.4 0.00 0.00 0.00 25 1020.9
20260831163106 30 236 11.3 27.4 0.00 0.00 0.00 25 1020.9
20260831161629 29 221 16.1 25.7 0.00 0.00 0.00 26 1021.0
20260831160136 30 248 11.3 22.5 0.00 0.00 0.00 26 1021.0
20260831154631 30 201 9.7 22.5 0.00 0.00 0.00 26 1021.1
20260831153134 30 210 12.9 29.0 0.00 0.00 0.00 26 1021.1
20260831151611 30 233 8.0 20.9 0.00 0.00 0.00 26 1021.1
20260831150107 29 269 3.2 24.1 0.00 0.00 0.00 26 1021.3
20260831144607 29 233 11.3 22.5 0.00 0.00 0.00 26 1021.3
20260831143111 29 271 9.7 22.5 0.00 0.00 0.00 27 1021.3
20260831141604 29 311 11.3 25.7 0.00 0.00 0.00 26 1021.6
20260831134611 29 235 1.6 19.3 0.00 0.00 0.00 26 1021.9
20260831133103 29 257 4.8 16.1 0.00 0.00 0.00 26 1021.9
20260831131607 28 254 8.0 22.5 0.00 0.00 0.00 28 1022.0
20260831130141 28 249 17.7 29.0 0.00 0.00 0.00 27 1022.0
20260831124603 28 226 4.8 17.7 0.00 0.00 0.00 30 1022.0
20260831123119 28 229 9.7 27.4 0.00 0.00 0.00 29 1022.4
20260831121608 28 215 11.3 22.5 0.00 0.00 0.00 31 1022.4
20260831120147 27 236 11.3 20.9 0.00 0.00 0.00 31 1022.4
20260831114607 27 0 8.0 17.7 0.00 0.00 0.00 34 1022.6
20260831113109 27 246 4.8 9.7 0.00 0.00 0.00 36 1022.7
20260831111605 27 232 8.0 14.5 0.00 0.00 0.00 37 1022.9
20260831110110 26 0 0.0 9.7 0.00 0.00 0.00 41 1022.8
20260831104607 25 24 3.2 8.0 0.00 0.00 0.00 43 1023.0
20260831103104 25 247 3.2 9.7 0.00 0.00 0.00 46 1023.0
20260831101621 23 312 4.8 9.7 0.00 0.00 0.00 47 1023.2
20260831094610 22 41 6.4 16.1 0.00 0.00 0.00 51 1023.4
20260831093113 22 52 3.2 14.5 0.00 0.00 0.00 53 1023.3
20260831091605 21 39 9.7 17.7 0.00 0.00 0.00 54 1023.4
20260831090124 21 59 4.8 12.9 0.00 0.00 0.00 57 1023.3
20260831084603 20 47 3.2 14.5 0.00 0.00 0.00 60 1023.2
20260831083104 20 77 6.4 14.5 0.00 0.00 0.00 61 1023.2
20260831081603 19 56 6.4 12.9 0.00 0.00 0.00 61 1023.2
20260831080110 19 56 3.2 9.7 0.00 0.00 0.00 63 1023.1